EHI
0 0 0 0 0 0 0 0 0 0 0 0 0 0 0 0 0 0 0 0 0 0 0 0 0 0 0 0 0 0 0 0 0 0 0 0 0 0 0 0 0 0 0
0 0 0 0 0 0 0 0 0 0 0 0 0 0 0 0 0 0 0 0 0 0 0 0 0 0 0 0 0 0 0 0 0 0 0 0 0 0 0 0 0 0 0
0 0 0 0 0 0 0 0 0 0 0 0 0 0 0 0 0 0 0 0 0 0 0 0 0 0 0 0 0 0 0 0 0 0 0 0 0 0 0 0 0 0 0
0 0 0 0 0 0 0 0 0 0 0 0 0 0 0 0 0 0 0 0 0 0 0 0 0 0 0 0 0 0 0 0 0 0 0 0 0 0 0 0 0 0 0
0 0 0 0 0 0 0 0 0 0 0 0 0 0 0 0 0 0 0 0 0 0 0 0 0 0 0 0 0 0 0 0 0 0 0 0 0 0 0 0 0 0 0
0 0 0 0 0 0 0 0 0 0 0 0 0 0 0 0 0 0 0 0 0 0 0 0 0 0 0 0 0 0 0 0 0 0 0 0 0 0 0 0 0 0 0
0 0 0 0 0 0 0 0 0 0 0 0 0 0 0 0 0 0 0 0 0 0 0 0 0 0 0 0 0 0 0 0 0 0 0 0 0 0 0 0 0 0 0
0 0 0 0 0 0 0 0 0 0 0 0 0 0 0 0 0 0 0 0 0 0 0 0 0 0 0 0 0 0 0 0 0 0 0 0 0 0 0 0 0 0 0
0 0 0 0 0 0 0 0 0 0 0 0 0 0 0 0 0 0 0 0 0 0 0 0 0 0 0 0 0 0 0 0 0 0 0 0 0 0 0 0 0 0 0
0 0 0 0 0 0 0 0 0 0 0 0 0 0 0 0 0 0 0 0 0 0 0 0 0 0 0 0 0 0 0 0 0 0 0 0 0 0 0 0 0 0 0
0 0 0 0 0 0 0 0 0 0 0 0 0 0 0 0 0 0 0 0 0 0 0 0 0 0 0 0 0 0 0 0 0 0 0 0 0 0 0 0 0 0 0
0 0 0 0 0 0 0 0 0 0 0 0 0 0 0 0 0 0 0 0 0 0 0 0 0 0 0 0 0 0 0 0 0 0 0 0 0 0 0 0 0 0 0
0 0 0 0 0 0 0 0 0 0 0 0 0 0 0 0 0 0 0 0 0 0 0 0 0 0 0 0 0 0 0 0 0 0 0 0 0 0 0 0 0 0 0
0 0 0 0 0 0 0 0 0 0 0 0 0 0 0 0 0 0 0 0 0 0 0 0 0 0 0 0 0 0 0 0 0 0 0 0 0 0 0 0 0 0 0
0 0 0 0 0 0 0 0 0 0 0 0 0 0 0 0 0 0 0 0 0 0 0 0 0 0 0 0 0 0 0 0 0 0 0 0 0 0 0 0 0 0 0
0 0 0 0 0 0 0 0 0 0 0 0 0 0 0 0 0 0 0 0 0 0 0 0 0 0 0 0 0 0 0 0 0 0 0 0 0 0 0 0 0 0 0
0 0 0 0 0 0 0 0 0 0 0 0 0 0 0 0 0 0 0 0 0 0 0 0 0 0 0 0 0 0 0 0 0 0 0 0 0 0 0 0 0 0 0
0 0 0 0 0 0 0 0 0 0 0 0 0 0 0 0 0 0 0 0 0 0 0 0 0 0 0 0 0 0 0 0 0 0 0 0 0 0 0 0 0 0 0
0 0 0 0 0 0 0 0 0 0 0 0 0 0 0 0 0 0 0 0 0 0 0 0 0 0 0 0 0 0 0 0 0 0 0 0 0 0 0 0 0 0 0
0 0 0 0 0 0 0 0 0 0 0 0 0 0 0 0 0 0 0 0 0 0 0 0 0 0 0 0 0 0 0 0 0 0 0 0 0 0 0 0 0 0 0
0 0 0 0 0 0 0 0 0 0 0 0 0 0 0 0 0 0 0 0 0 0 0 0 0 0 0 0 0 0 0 0 0 0 0 0 0 0 0 0 0 0 0
0 0 0 0 0 0 0 0 0 0 0 0 0 0 0 0 0 0 0 0 0 0 0 0 0 0 0 0 0 0 0 0 0 0 0 0 0 0 0 0 0 0 0
0 0 0 0 0 0 0 0 0 0 0 0 0 0 0 0 0 0 0 0 0 0 0 0 0 0 0 0 0 0 0 0 0 0 0 0 0 0 0 0 0 0 0
0 0 0 0 0 0 0 0 0 0 0 0 0 0 0 0 0 0 0 0 0 0 0 0 0 0 0 0 0 0 0 0 0 0 0 0 0 0 0 0 0 0 0
0 0 0 0 0 0 0 0 0 0 0 0 0 0 0 0 0 0 0 0 0 0 0 0 0 0 0 0 0 0 0 0 0 0 0 0 0 0 0 0 0 0 0
0 0 0 0 0 0 0 0 0 0 0 0 0 0 0 0 0 0 0 0 0 0 0 0 0 0 0 0 0 0 0 0 0 0 0 0 0 0 0 0 0 0 0
Wind_Speed
6 6 6 6 6 5 4 5 5 5 5 5 5 5 5 5 5 5 5 5 6 5 5 5 6 6 5 4 4 4 5 5 7 5 4 4 5 5 5 6 6 6 6
5 6 6 6 6 5 5 5 5 5 5 5 4 4 5 5 5 5 5 5 6 6 6 6 6 5 5 5 4 5 5 6 6 7 5 4 6 6 6 6 6 6 6
5 5 5 6 6 6 5 5 5 5 5 4 4 4 4 4 4 5 5 5 5 5 5 5 5 6 5 4 5 5 4 4 5 5 5 4 4 4 5 6 6 6 7
4 5 5 5 6 6 5 5 5 5 5 4 4 4 3 3 3 4 4 4 4 4 4 4 5 5 5 5 4 4 4 4 4 5 4 4 4 4 4 4 5 6 6
4 4 5 5 5 5 5 4 4 4 4 4 3 3 3 2 2 3 3 3 3 3 3 3 3 2 2 3 3 3 3 3 3 3 4 4 4 3 4 4 6 6 7
4 4 4 4 5 5 4 4 4 4 4 3 3 3 3 2 2 3 3 2 3 3 3 3 2 2 1 2 3 3 4 4 4 4 4 5 5 5 5 5 5 6 6
4 4 4 4 4 4 4 4 3 4 3 3 3 3 3 3 3 2 2 2 2 2 3 3 2 1 2 3 2 3 3 4 5 5 6 6 5 5 6 6 6 7 8
4 4 4 4 4 4 4 4 3 3 3 3 3 3 3 3 3 2 2 2 2 2 2 3 3 2 2 3 2 2 2 3 3 4 5 5 5 5 6 7 7 8 8
4 4 4 4 4 4 4 4 3 3 3 3 3 3 3 3 3 2 2 1 1 2 2 2 3 3 2 3 3 3 3 3 2 3 5 5 6 6 6 4 5 5 6
5 4 4 4 4 4 4 4 3 3 3 2 2 2 2 3 3 3 3 1 1 2 2 2 2 3 3 3 3 3 3 4 4 4 4 4 5 5 6 5 5 5 5
4 4 4 4 4 4 3 3 3 2 2 2 2 2 2 3 3 3 3 2 2 2 2 2 2 3 4 4 4 3 4 5 4 4 4 4 4 4 4 4 4 5 6
4 4 4 4 3 3 3 3 3 2 2 2 2 2 2 2 3 3 4 3 3 3 3 2 2 3 4 4 3 3 4 4 3 3 3 3 4 4 5 5 6 6 7
4 4 4 4 3 3 3 3 2 2 2 2 2 2 2 2 2 3 4 4 4 3 2 3 4 4 4 2 2 3 3 2 2 3 3 4 4 5 5 5 6 6 7
5 4 4 3 3 3 3 2 2 2 2 2 2 2 2 2 2 2 2 3 3 3 2 2 2 2 2 2 2 2 2 2 3 3 3 4 4 4 4 5 5 5 6
5 4 4 4 3 3 3 3 3 3 3 3 2 2 2 3 3 4 3 3 3 2 3 2 2 1 2 2 2 2 2 2 2 2 3 3 4 4 5 5 5 5 6
5 4 4 3 3 3 3 3 4 4 4 5 5 4 3 4 4 4 4 4 4 3 2 2 2 2 2 2 3 3 3 3 3 3 3 4 4 5 5 5 5 5 6
5 4 3 3 3 3 3 3 3 3 5 5 5 5 5 5 5 4 4 4 3 3 2 2 2 2 2 3 3 3 3 3 3 3 4 4 4 5 5 5 5 5 6
5 5 4 4 3 3 3 3 3 3 2 2 4 5 5 5 4 4 4 3 2 2 2 2 2 3 3 3 3 3 3 4 4 4 4 4 5 5 5 6 6 6 7
5 4 4 4 3 3 3 3 3 3 3 2 2 2 4 4 4 4 3 2 2 2 2 3 3 3 3 3 3 4 4 4 4 4 5 5 5 5 6 6 6 9 8
5 6 5 4 3 3 3 3 3 3 3 3 3 2 2 2 2 2 2 2 3 3 3 3 3 3 3 3 3 4 4 4 5 5 5 5 5 5 6 7 7 7 7
4 5 6 4 4 4 4 4 4 3 3 3 3 3 3 3 3 3 3 3 3 3 3 3 3 3 3 3 4 4 5 5 5 5 5 5 6 6 6 7 7 7 7
4 4 4 4 4 4 4 4 4 4 4 4 3 3 5 3 3 3 3 3 3 3 3 3 4 3 3 4 4 4 5 5 5 5 5 6 6 7 7 7 7 7 7
4 4 4 4 4 5 5 4 4 4 4 4 3 3 3 3 3 3 4 3 3 3 3 3 4 4 3 3 4 4 5 5 5 6 6 7 6 6 7 7 8 8 8
5 5 5 4 4 4 4 4 4 4 4 4 4 4 4 4 4 4 4 3 3 3 3 3 4 5 6 5 4 4 5 5 6 6 8 7 7 7 7 7 8 8 8
5 5 5 5 5 4 4 5 4 4 4 4 4 4 4 4 4 4 3 3 4 4 4 4 4 4 6 6 6 6 7 10 10 8 7 7 8 8 8 8 7 8 8
5 5 4 4 4 4 4 5 5 5 4 4 4 4 4 4 4 4 3 3 3 4 4 4 5 6 6 6 7 8 10 12 12 12 8 6 7 7 7 7 8 7 8
Wind_Direction
314 315 317 317 316 313 304 301 300 297 298 294 288 284 273 268 262 251 242 240 238 240 238 240 242 244 246 241 238 235 236 241 251 260 265 265 266 264 267 268 269 266 258
309 311 315 316 313 310 306 305 304 303 301 295 285 283 279 272 266 259 249 243 241 242 241 239 243 244 246 245 240 238 240 242 248 258 266 267 271 273 275 277 277 274 271
304 308 313 316 316 313 309 306 308 306 301 298 291 285 283 280 275 265 254 249 247 249 250 247 246 241 242 245 243 242 249 254 254 257 265 270 270 273 281 282 284 282 280
299 303 308 313 318 317 315 311 309 305 301 301 295 286 283 283 287 278 263 257 254 256 255 253 251 246 247 248 244 244 248 251 252 254 261 266 270 277 281 283 287 288 286
292 297 305 311 316 318 320 320 317 313 309 304 298 290 288 288 299 296 286 274 262 260 262 262 259 263 269 262 259 257 250 246 248 254 259 266 269 280 281 284 283 290 286
285 292 302 308 312 313 316 317 317 319 321 322 319 310 299 298 324 313 298 290 281 267 263 264 263 249 245 256 265 272 267 256 257 256 259 259 272 279 287 284 285 287 284
277 287 296 301 303 307 311 315 318 320 321 325 330 328 324 317 308 306 306 290 294 284 270 262 263 272 259 256 261 262 264 272 267 262 259 263 273 280 282 279 278 281 279
268 280 288 291 294 301 304 307 310 309 310 319 324 321 320 336 325 305 308 293 300 311 303 277 265 266 265 264 264 269 277 287 281 268 266 273 280 285 280 277 280 283 284
261 271 278 280 284 291 293 296 299 298 301 310 314 316 321 333 348 342 321 295 300 306 304 304 286 267 282 280 268 269 284 296 305 294 291 287 290 291 288 280 280 284 287
254 260 266 267 270 275 280 284 288 288 292 300 304 308 312 322 349 346 328 298 305 307 309 306 311 301 300 294 276 274 281 295 304 304 296 293 291 289 289 275 275 276 286
252 254 257 258 262 267 271 274 276 275 279 284 292 300 310 326 338 343 341 320 306 303 301 300 309 324 322 317 300 285 284 295 293 294 296 299 299 294 293 291 284 274 273
244 246 247 253 257 259 262 266 265 265 271 276 283 296 314 325 334 339 336 327 317 296 293 298 311 326 321 316 310 307 302 296 284 287 292 300 302 301 301 301 296 288 278
238 241 243 246 248 249 250 251 249 254 263 270 272 284 305 313 318 322 325 324 314 301 301 309 316 321 313 305 313 314 305 295 290 288 290 296 299 299 301 300 300 296 287
236 239 237 238 242 241 241 243 243 242 251 262 269 277 289 295 305 312 308 306 302 294 293 298 306 316 311 319 315 312 301 295 292 291 296 299 302 300 298 301 300 302 296
233 235 231 232 236 234 235 240 243 240 250 259 262 266 276 283 301 314 312 307 305 301 302 295 296 301 307 311 313 323 318 302 292 293 294 296 297 299 300 302 295 295 288
225 228 228 227 230 236 242 250 247 252 257 261 273 277 277 284 305 303 299 301 307 312 301 292 298 302 305 312 313 316 316 316 315 306 295 295 296 296 297 298 292 287 286
227 229 227 227 227 230 235 244 254 240 237 249 259 265 270 285 288 289 289 294 301 300 284 293 298 301 302 305 305 304 305 307 305 297 295 297 297 296 295 294 292 289 287
226 229 229 230 229 229 231 236 242 248 246 243 242 252 261 271 278 282 279 280 280 279 277 281 286 293 297 298 298 299 299 300 298 296 296 295 293 290 289 290 290 289 290
218 220 221 226 225 227 228 230 235 242 250 255 255 248 250 259 263 271 265 258 262 267 269 273 278 283 287 290 291 292 293 294 294 294 292 290 290 289 287 288 289 290 288
220 220 216 218 218 220 220 223 228 233 239 244 248 255 248 245 252 257 252 257 262 267 270 272 276 279 281 283 285 287 288 289 291 288 290 291 290 288 287 288 289 290 289
216 212 209 215 218 218 220 223 227 231 237 245 249 249 247 251 258 262 262 262 266 270 272 274 276 276 276 278 280 282 284 286 286 288 290 292 292 289 287 285 286 286 286
209 209 207 212 213 214 219 224 227 231 237 245 252 245 242 248 256 261 262 266 270 271 271 269 271 272 273 273 273 274 277 281 283 284 288 289 289 290 290 288 287 289 287
204 205 208 211 213 215 218 220 223 229 236 241 243 241 237 243 250 257 263 268 270 270 268 266 268 271 272 272 271 270 271 276 280 283 286 287 287 289 291 291 290 291 291
204 207 209 210 209 211 215 219 221 227 233 237 238 239 241 245 250 255 260 264 265 266 265 265 267 270 274 277 274 274 275 280 282 278 277 279 285 287 288 290 290 289 290
205 209 210 210 211 213 215 220 222 225 229 233 235 238 241 245 250 253 256 257 260 263 267 269 268 269 270 274 277 278 279 282 283 282 277 275 277 280 285 288 289 293 292
207 211 214 215 215 216 217 220 224 226 228 230 233 235 237 240 245 248 250 251 256 261 264 265 268 273 276 275 275 277 280 284 285 286 285 279 279 281 287 287 290 291 292